Regional Weather Roundup
Issued by NWS

Home | Current Version | Previous Version | Graphics & Text | Print | Product List | Glossary On
Versions: 1 2 3 4 5 6 7 8 9 10 11 12 13 14 15 16 17 18 19 20 21 22 23 24 25 26 27 28 29 30 31 32 33 34 35 36 37 38 39 40 41 42 43 44 45 46 47 48 49 50
000
ASUS43 KLSX 310359
RWRMO

WEATHER SUMMARY FOR MISSOURI
NATIONAL WEATHER SERVICE SPRINGFIELD MO
1000 PM CST FRI JAN 30 2015

NOTE: "FAIR" INDICATES FEW OR NO CLOUDS BELOW 12,000 FEET WITH NO
       SIGNIFICANT WEATHER AND/OR OBSTRUCTIONS TO VISIBILITY.
       CURRENT SKY AND/OR WEATHER CONDITIONS ARE NOT AVAILABLE FOR
       CHILLICOTHE AND FARMINGTON.

MOZ001>031-035>038-043-044-053-054-310500-
...NORTHERN AND WESTERN MISSOURI...

CITY           SKY/WX    TMP DP  RH WIND       PRES   REMARKS
KANSAS CTY INT CLOUDY    33  23  66 S9        30.35F WCI  25
KANSAS C DTWN  CLOUDY    36  21  54 S5        30.37S
LEE`S SUMMIT   CLOUDY    35  19  52 S5        30.37S
ST JOSEPH      CLOUDY    30  22  72 SE6       30.36F WCI  24
CHILLICOTHE      N/A     29  20  69 S3        30.39S
KIRKSVILLE     MOCLDY    26  19  74 SW7       30.36F WCI  18

$$
MOZ066>068-077>081-088>096-101>105-310500-
...SOUTHWEST MISSOURI...

CITY           SKY/WX    TMP DP  RH WIND       PRES   REMARKS
SPRINGFIELD    CLOUDY    38  22  52 S7        30.35F
JOPLIN         CLOUDY    37  27  67 CALM      30.37S

$$
MOZ032>034-039>042-045>050-055>058-069>072-310500-
...CENTRAL MISSOURI...

CITY           SKY/WX    TMP DP  RH WIND       PRES   REMARKS
COLUMBIA       CLOUDY    30  18  60 SE6       30.39S WCI  24
JEFFERSON CITY CLOUDY    28  19  69 CALM      30.41S
ROLLA          CLOUDY    30  21  69 CALM      30.37F
SEDALIA        CLOUDY    32  21  64 SE3       30.39S
OSAGE BEACH    CLOUDY    34  16  47 E3        30.39S

$$
MOZ051-052-059>065-310500-
...EAST CENTRAL MISSOURI...

CITY           SKY/WX    TMP DP  RH WIND       PRES   REMARKS
ST LOUIS INTL  MOCLDY    33  20  58 SE6       30.42F WCI  28
SPIRIT OF STL  PTCLDY    23  18  81 CALM      30.41F
ST CHARLES     PTCLDY    25  22  88 E3        30.42F

$$
MOZ072>076-082>087-097>100-106>115-310500-
...SOUTH CENTRAL AND SOUTHEAST MISSOURI...

CITY           SKY/WX    TMP DP  RH WIND       PRES   REMARKS
CAPE GIRARDEAU MOCLDY    32  23  69 CALM      30.45S
FARMINGTON     CLOUDY    30  18  59 CALM      30.44S
POPLAR BLUFF   MOCLDY    30  25  81 CALM      30.44R
WEST PLAINS    MOCLDY    33  19  56 S3        30.39F

$$



USA.gov is the U.S. government's official web portal to all federal, state and local government web resources and services.